Starlink 11388

operational
NORAD ID: 62092 Int'l Des: 2024-220 Owner: SPXS Country: US Constellation: starlink
LEOCIRCULAR

About Starlink 11388

Description loading...

Live Position

Loading 3D Globe...

Upcoming Passes

Altitude History

Altitude vs Time

uPlot chart will show altitude changes over time

Two-Line Element Set

1 62092U 24220E 25349.83211117 .00159509 00000-0 12158-2 0 9994
2 62092 42.9987 188.6207 0001867 247.4294 112.6376 15.70977476 61765
Epoch: Dec 15, 2025 • Age: 37 hours

Current Status

Altitude 354.5 km
Velocity 7.70 km/s
Sub-Earth Point 1.92°N, 33.73°W
Launch Date Nov 25, 2024
Age 1 years
Type internet

Technical Details

Classification Payload
Mass 960.00 kg
Dry Mass 910.00 kg
Total Mass 960.00 kg
Length 0.30 m
Diameter 4.10 m
Span 29.00 m
Shape Box + pan
Manufacturer SPXS
Bus Type Starlink V2MD
Phase Status In Orbit
Owner/State SPXS/US

Large Constellations

Loading constellations...